HorshamWeather.Com Historical Data
 
Daily Summary for August 23, 2014 Units:  English    Metric   Both
« Previous Day
Next Day »
Daily Weekly Monthly Yearly Custom
  Current: High: Low: Average:
Temperature: 69.4 °F 70.4 °F 64.0 °F 66.4 °F
Dew Point: 63.3 °F 66.4 °F 61.6 °F 63.6 °F
Humidity: 81% 97% 81% 91%
Wind Speed: 2.0mph 4.0mph 0.0mph 1.3mph
Wind Gust: 4.0mph 8.0mph - -
WindEast - - ESE
Pressure: 30.08 in 30.08 in 30.02 in -
Precipitation: 0.17 in      
Historical Graphs
 
 
Tabular Data for August 23, 2014
Time Temperature Dew Point Pressure Wind Wind Speed Wind Gust Humidity Rainfall Rate (Hourly)
00:01 67.4 °F 62.1 °F 30.05 in Calm     83% 0.00 in
00:06 67.3 °F 62.0 °F 30.05 in Calm   1.0 mph 83% 0.00 in
00:11 67.3 °F 62.0 °F 30.05 in Calm   1.0 mph 83% 0.00 in
00:16 67.2 °F 61.9 °F 30.05 in Calm   1.0 mph 83% 0.00 in
00:21 67.3 °F 62.3 °F 30.04 in Calm     84% 0.00 in
00:26 67.2 °F 62.2 °F 30.04 in ENE 1.0 mph 1.0 mph 84% 0.00 in
00:31 67.2 °F 62.2 °F 30.04 in Calm     84% 0.00 in
00:36 67.2 °F 62.2 °F 30.04 in Calm   1.0 mph 84% 0.00 in
00:41 67.2 °F 62.5 °F 30.04 in Calm   1.0 mph 85% 0.00 in
00:47 67.2 °F 62.2 °F 30.04 in Calm   2.0 mph 84% 0.00 in
00:52 67.2 °F 62.5 °F 30.03 in ESE 1.0 mph 1.0 mph 85% 0.00 in
00:57 67.1 °F 62.5 °F 30.03 in ESE 1.0 mph 2.0 mph 85% 0.00 in
01:02 67.1 °F 62.5 °F 30.03 in ESE 1.0 mph 2.0 mph 85% 0.00 in
01:07 67.0 °F 62.3 °F 30.03 in Calm     85% 0.00 in
01:12 66.9 °F 62.2 °F 30.03 in Calm   1.0 mph 85% 0.00 in
01:17 66.8 °F 62.2 °F 30.03 in Calm   2.0 mph 85% 0.00 in
01:22 66.7 °F 62.0 °F 30.03 in ENE 1.0 mph 1.0 mph 85% 0.00 in
01:27 66.6 °F 62.3 °F 30.03 in Calm   1.0 mph 86% 0.00 in
01:32 66.4 °F 62.1 °F 30.02 in Calm   1.0 mph 86% 0.00 in
01:37 66.3 °F 62.0 °F 30.02 in Calm   1.0 mph 86% 0.00 in
01:42 66.1 °F 62.1 °F 30.03 in Calm     87% 0.00 in
01:47 65.9 °F 61.9 °F 30.03 in ENE 1.0 mph 1.0 mph 87% 0.00 in
01:52 65.8 °F 62.2 °F 30.03 in Calm     88% 0.00 in
01:57 65.8 °F 62.5 °F 30.03 in Calm     89% 0.00 in
02:02 65.7 °F 62.4 °F 30.03 in Calm     89% 0.00 in
02:07 65.7 °F 62.4 °F 30.03 in Calm     89% 0.00 in
02:12 65.7 °F 62.4 °F 30.03 in Calm     89% 0.00 in
02:17 65.7 °F 62.7 °F 30.02 in Calm     90% 0.00 in
02:22 65.7 °F 62.7 °F 30.02 in Calm     90% 0.00 in
02:27 65.7 °F 62.7 °F 30.02 in Calm     90% 0.00 in
02:32 65.6 °F 62.6 °F 30.02 in Calm     90% 0.00 in
02:37 65.5 °F 62.2 °F 30.02 in Calm     89% 0.00 in
02:42 65.4 °F 62.1 °F 30.02 in Calm     89% 0.00 in
02:47 65.2 °F 61.9 °F 30.02 in Calm     89% 0.00 in
02:52 65.1 °F 62.1 °F 30.02 in Calm     90% 0.00 in
02:57 65.0 °F 62.0 °F 30.03 in Calm     90% 0.00 in
03:02 64.9 °F 61.9 °F 30.02 in Calm     90% 0.00 in
03:07 64.8 °F 61.8 °F 30.02 in Calm     90% 0.00 in
03:12 64.7 °F 62.0 °F 30.02 in Calm     91% 0.00 in
03:17 64.7 °F 62.0 °F 30.02 in Calm     91% 0.00 in
03:22 64.5 °F 62.1 °F 30.02 in Calm     92% 0.00 in
03:27 64.4 °F 62.0 °F 30.02 in Calm     92% 0.00 in
03:32 64.3 °F 61.9 °F 30.02 in Calm     92% 0.00 in
03:37 64.2 °F 61.8 °F 30.02 in Calm     92% 0.00 in
03:42 64.1 °F 61.7 °F 30.02 in Calm     92% 0.00 in
03:47 64.0 °F 61.6 °F 30.02 in NNE 1.0 mph 2.0 mph 92% 0.00 in
03:52 64.0 °F 61.6 °F 30.02 in Calm   2.0 mph 92% 0.00 in
03:57 64.0 °F 61.9 °F 30.02 in Calm   1.0 mph 93% 0.00 in
04:02 64.1 °F 62.3 °F 30.02 in Calm   1.0 mph 94% 0.00 in
04:07 64.1 °F 62.3 °F 30.02 in Calm   1.0 mph 94% 0.00 in
04:12 64.2 °F 62.4 °F 30.03 in Calm     94% 0.00 in
04:17 64.3 °F 62.5 °F 30.02 in Calm   1.0 mph 94% 0.00 in
04:22 64.5 °F 62.4 °F 30.02 in Calm   1.0 mph 93% 0.00 in
04:27 64.6 °F 62.5 °F 30.02 in Calm   1.0 mph 93% 0.00 in
04:32 64.8 °F 62.7 °F 30.02 in Calm   1.0 mph 93% 0.00 in
04:37 64.9 °F 62.8 °F 30.02 in Calm   1.0 mph 93% 0.00 in
04:42 65.0 °F 62.6 °F 30.02 in Calm   2.0 mph 92% 0.00 in
04:47 65.0 °F 62.6 °F 30.03 in East 1.0 mph 1.0 mph 92% 0.00 in
04:52 65.1 °F 62.7 °F 30.03 in Calm   2.0 mph 92% 0.00 in
04:57 65.2 °F 62.5 °F 30.02 in Calm   1.0 mph 91% 0.00 in
05:02 65.2 °F 62.5 °F 30.03 in Calm   1.0 mph 91% 0.00 in
05:07 65.3 °F 62.6 °F 30.03 in ESE 2.0 mph 3.0 mph 91% 0.00 in
05:12 65.4 °F 62.4 °F 30.03 in NNE 1.0 mph 2.0 mph 90% 0.00 in
05:17 65.4 °F 62.4 °F 30.03 in Calm   1.0 mph 90% 0.00 in
05:22 65.4 °F 62.7 °F 30.03 in NNE 1.0 mph 1.0 mph 91% 0.00 in
05:27 65.4 °F 62.7 °F 30.03 in NE 1.0 mph 2.0 mph 91% 0.00 in
05:32 65.4 °F 62.4 °F 30.03 in Calm   1.0 mph 90% 0.00 in
05:37 65.4 °F 62.4 °F 30.03 in Calm     90% 0.00 in
05:42 65.4 °F 62.7 °F 30.03 in Calm   1.0 mph 91% 0.00 in
05:47 65.4 °F 62.7 °F 30.03 in Calm     91% 0.00 in
05:52 65.3 °F 62.6 °F 30.03 in Calm   1.0 mph 91% 0.00 in
05:57 65.3 °F 62.6 °F 30.03 in NE 1.0 mph 1.0 mph 91% 0.00 in
06:02 65.3 °F 62.6 °F 30.04 in Calm   1.0 mph 91% 0.00 in
06:07 65.2 °F 62.5 °F 30.04 in Calm   2.0 mph 91% 0.00 in
06:12 65.2 °F 62.5 °F 30.04 in Calm   1.0 mph 91% 0.00 in
06:17 65.2 °F 62.2 °F 30.04 in Calm   1.0 mph 90% 0.00 in
06:22 65.2 °F 62.5 °F 30.04 in Calm   1.0 mph 91% 0.00 in
06:27 65.2 °F 62.5 °F 30.04 in NNE 1.0 mph 2.0 mph 91% 0.00 in
06:32 65.1 °F 62.7 °F 30.04 in East 1.0 mph 2.0 mph 92% 0.00 in
06:37 64.9 °F 62.5 °F 30.04 in Calm   2.0 mph 92% 0.00 in
06:42 64.8 °F 62.4 °F 30.04 in Calm   2.0 mph 92% 0.00 in
06:47 64.8 °F 62.7 °F 30.04 in North 1.0 mph 2.0 mph 93% 0.00 in
06:52 64.7 °F 62.6 °F 30.05 in Calm   1.0 mph 93% 0.00 in
06:57 64.6 °F 62.8 °F 30.05 in NE 1.0 mph 2.0 mph 94% 0.00 in
07:02 64.6 °F 62.8 °F 30.05 in North 1.0 mph 1.0 mph 94% 0.01 in
07:07 64.5 °F 62.7 °F 30.05 in NE 1.0 mph 2.0 mph 94% 0.01 in
07:12 64.5 °F 62.7 °F 30.05 in ENE 1.0 mph 2.0 mph 94% 0.01 in
07:17 64.4 °F 62.6 °F 30.05 in East 1.0 mph 2.0 mph 94% 0.01 in
07:22 64.3 °F 62.5 °F 30.06 in Calm   1.0 mph 94% 0.01 in
07:27 64.3 °F 62.8 °F 30.06 in Calm   1.0 mph 95% 0.01 in
07:32 64.3 °F 62.8 °F 30.06 in Calm   1.0 mph 95% 0.01 in
07:37 64.3 °F 62.8 °F 30.06 in East 1.0 mph 3.0 mph 95% 0.02 in
07:42 64.3 °F 62.8 °F 30.06 in Calm     95% 0.02 in
07:47 64.3 °F 62.8 °F 30.06 in Calm   1.0 mph 95% 0.02 in
07:52 64.3 °F 62.8 °F 30.06 in Calm   1.0 mph 95% 0.02 in
07:57 64.4 °F 62.9 °F 30.06 in ESE 1.0 mph 1.0 mph 95% 0.03 in
08:02 64.4 °F 62.9 °F 30.06 in Calm   2.0 mph 95% 0.02 in
08:07 64.4 °F 62.9 °F 30.07 in Calm   1.0 mph 95% 0.03 in
08:12 64.4 °F 62.9 °F 30.06 in ESE 1.0 mph 2.0 mph 95% 0.03 in
08:17 64.3 °F 62.8 °F 30.06 in Calm   4.0 mph 95% 0.03 in
08:22 64.3 °F 63.1 °F 30.06 in Calm   1.0 mph 96% 0.04 in
08:27 64.3 °F 63.1 °F 30.06 in SE 1.0 mph 1.0 mph 96% 0.05 in
08:32 64.3 °F 63.1 °F 30.06 in NNE 1.0 mph 2.0 mph 96% 0.05 in
08:37 64.3 °F 63.1 °F 30.07 in Calm   2.0 mph 96% 0.06 in
08:42 64.3 °F 63.1 °F 30.07 in ENE 1.0 mph 1.0 mph 96% 0.06 in
08:47 64.3 °F 63.1 °F 30.07 in Calm   1.0 mph 96% 0.07 in
08:52 64.4 °F 63.2 °F 30.06 in Calm   1.0 mph 96% 0.08 in
08:58 64.5 °F 63.3 °F 30.07 in East 1.0 mph 1.0 mph 96% 0.08 in
09:02 64.7 °F 63.8 °F 30.07 in Calm   2.0 mph 97% 0.07 in
09:07 65.1 °F 64.2 °F 30.07 in Calm   1.0 mph 97% 0.06 in
09:12 65.3 °F 64.4 °F 30.07 in NNE 2.0 mph 3.0 mph 97% 0.06 in
09:17 65.3 °F 64.1 °F 30.07 in North 2.0 mph 3.0 mph 96% 0.07 in
09:22 65.2 °F 64.0 °F 30.07 in Calm   1.0 mph 96% 0.08 in
09:27 65.1 °F 63.9 °F 30.07 in NE 2.0 mph 2.0 mph 96% 0.06 in
09:32 65.0 °F 63.8 °F 30.07 in ENE 1.0 mph 2.0 mph 96% 0.07 in
09:37 65.1 °F 63.9 °F 30.08 in Calm   3.0 mph 96% 0.07 in
09:42 65.2 °F 64.0 °F 30.08 in Calm   1.0 mph 96% 0.07 in
09:48 65.3 °F 64.1 °F 30.08 in Calm   3.0 mph 96% 0.06 in
09:52 65.4 °F 64.2 °F 30.08 in NNE 1.0 mph 3.0 mph 96% 0.06 in
09:57 65.6 °F 64.4 °F 30.08 in NNE 1.0 mph 3.0 mph 96% 0.05 in
10:02 65.8 °F 64.9 °F 30.08 in Calm   2.0 mph 97% 0.05 in
10:07 66.3 °F 65.4 °F 30.08 in Calm     97% 0.05 in
10:12 66.5 °F 65.6 °F 30.08 in NNE 1.0 mph 2.0 mph 97% 0.06 in
10:17 66.6 °F 65.4 °F 30.08 in NNE 1.0 mph 3.0 mph 96% 0.05 in
10:22 66.5 °F 65.0 °F 30.08 in Calm   4.0 mph 95% 0.04 in
10:27 66.4 °F 64.9 °F 30.08 in East 1.0 mph 2.0 mph 95% 0.04 in
10:32 66.5 °F 65.0 °F 30.08 in Calm   3.0 mph 95% 0.04 in
10:37 66.7 °F 65.2 °F 30.08 in Calm   4.0 mph 95% 0.04 in
10:42 66.7 °F 65.2 °F 30.08 in North 2.0 mph 3.0 mph 95% 0.03 in
10:47 66.9 °F 65.7 °F 30.08 in NE 1.0 mph 2.0 mph 96% 0.03 in
10:52 67.0 °F 65.5 °F 30.08 in NNW 1.0 mph 1.0 mph 95% 0.02 in
10:57 67.2 °F 66.0 °F 30.08 in Calm   3.0 mph 96% 0.02 in
11:02 67.3 °F 65.8 °F 30.08 in NNE 2.0 mph 3.0 mph 95% 0.02 in
11:08 67.4 °F 65.9 °F 30.08 in NNW 1.0 mph 4.0 mph 95% 0.02 in
11:13 67.5 °F 66.0 °F 30.08 in Calm   2.0 mph 95% 0.01 in
11:18 67.5 °F 66.0 °F 30.08 in NNW 1.0 mph 2.0 mph 95% 0.01 in
11:23 67.5 °F 65.7 °F 30.08 in Calm   2.0 mph 94% 0.01 in
11:28 67.3 °F 65.5 °F 30.08 in North 1.0 mph 3.0 mph 94% 0.01 in
11:33 67.3 °F 65.5 °F 30.08 in SE 1.0 mph 3.0 mph 94% 0.01 in
11:38 67.1 °F 65.3 °F 30.08 in SE 2.0 mph 2.0 mph 94% 0.00 in
11:43 67.3 °F 65.8 °F 30.08 in East 1.0 mph 3.0 mph 95% 0.00 in
11:48 67.7 °F 66.2 °F 30.08 in Calm   2.0 mph 95% 0.00 in
11:53 67.9 °F 66.1 °F 30.08 in Calm   2.0 mph 94% 0.00 in
11:58 67.9 °F 65.8 °F 30.08 in East 1.0 mph 3.0 mph 93% 0.00 in
12:03 68.0 °F 65.6 °F 30.08 in SE 1.0 mph 2.0 mph 92% 0.00 in
12:08 68.1 °F 66.3 °F 30.08 in SE 1.0 mph 2.0 mph 94% 0.00 in
12:13 68.2 °F 66.4 °F 30.08 in NNE 1.0 mph 3.0 mph 94% 0.00 in
12:18 68.3 °F 66.2 °F 30.08 in NNW 1.0 mph 3.0 mph 93% 0.00 in
12:23 68.4 °F 66.0 °F 30.08 in NE 2.0 mph 5.0 mph 92% 0.00 in
12:28 68.3 °F 65.3 °F 30.08 in Calm   4.0 mph 90% 0.00 in
12:33 68.1 °F 65.4 °F 30.08 in Calm   4.0 mph 91% 0.00 in
12:38 68.0 °F 65.6 °F 30.08 in NNE 3.0 mph 4.0 mph 92% 0.00 in
12:43 67.9 °F 65.5 °F 30.08 in ENE 2.0 mph 2.0 mph 92% 0.00 in
12:48 67.8 °F 65.4 °F 30.08 in Calm   3.0 mph 92% 0.00 in
12:53 67.7 °F 65.3 °F 30.08 in NNE 1.0 mph 5.0 mph 92% 0.00 in
12:58 67.8 °F 65.4 °F 30.08 in Calm   2.0 mph 92% 0.00 in
13:03 67.8 °F 65.4 °F 30.08 in Calm   3.0 mph 92% 0.00 in
13:08 67.9 °F 65.5 °F 30.08 in NNW 4.0 mph 4.0 mph 92% 0.00 in
13:13 67.9 °F 65.5 °F 30.08 in East 1.0 mph 4.0 mph 92% 0.00 in
13:18 68.0 °F 65.6 °F 30.08 in ESE 1.0 mph 3.0 mph 92% 0.00 in
13:23 68.0 °F 65.6 °F 30.08 in Calm   2.0 mph 92% 0.00 in
13:28 68.0 °F 65.6 °F 30.08 in Calm   3.0 mph 92% 0.00 in
13:33 68.0 °F 65.3 °F 30.08 in Calm   3.0 mph 91% 0.00 in
13:38 68.1 °F 65.4 °F 30.08 in ESE 1.0 mph 4.0 mph 91% 0.00 in
13:43 68.3 °F 65.6 °F 30.08 in Calm   2.0 mph 91% 0.00 in
13:48 68.5 °F 65.8 °F 30.08 in ESE 2.0 mph 3.0 mph 91% 0.00 in
13:53 68.7 °F 66.0 °F 30.08 in Calm   1.0 mph 91% 0.00 in
13:58 69.0 °F 65.9 °F 30.08 in ESE 2.0 mph 3.0 mph 90% 0.00 in
14:03 69.4 °F 65.7 °F 30.08 in SSW 1.0 mph 4.0 mph 88% 0.00 in
14:08 69.7 °F 65.0 °F 30.08 in ESE 1.0 mph 8.0 mph 85% 0.00 in
14:13 69.8 °F 65.1 °F 30.08 in NW 1.0 mph 4.0 mph 85% 0.00 in
14:18 70.1 °F 65.1 °F 30.08 in ESE 2.0 mph 7.0 mph 84% 0.00 in
14:23 70.4 °F 65.7 °F 30.08 in SE 3.0 mph 4.0 mph 85% 0.00 in
14:28 70.2 °F 64.8 °F 30.08 in ESE 1.0 mph 5.0 mph 83% 0.00 in
14:33 70.2 °F 64.4 °F 30.08 in West 1.0 mph 3.0 mph 82% 0.00 in
14:38 70.1 °F 64.4 °F 30.08 in Calm   3.0 mph 82% 0.00 in
14:43 69.9 °F 64.2 °F 30.08 in SSE 1.0 mph 4.0 mph 82% 0.00 in
14:48 69.7 °F 64.3 °F 30.08 in ESE 3.0 mph 3.0 mph 83% 0.00 in
14:53 69.6 °F 63.9 °F 30.08 in SE 1.0 mph 3.0 mph 82% 0.00 in
14:58 69.5 °F 64.1 °F 30.08 in ESE 1.0 mph 2.0 mph 83% 0.00 in
15:03 69.4 °F 64.0 °F 30.08 in East 2.0 mph 3.0 mph 83% 0.00 in
15:08 69.4 °F 63.7 °F 30.08 in SE 2.0 mph 5.0 mph 82% 0.00 in
15:13 69.4 °F 64.0 °F 30.08 in NNW 1.0 mph 2.0 mph 83% 0.00 in
15:18 69.4 °F 63.7 °F 30.08 in ESE 3.0 mph 4.0 mph 82% 0.00 in
15:23 69.4 °F 64.0 °F 30.08 in SSE 1.0 mph 4.0 mph 83% 0.00 in
15:28 69.4 °F 63.3 °F 30.08 in NNE 1.0 mph 2.0 mph 81% 0.00 in
15:33 69.5 °F 64.1 °F 30.08 in SE 1.0 mph 2.0 mph 83% 0.00 in
15:38 69.5 °F 64.1 °F 30.08 in East 1.0 mph 2.0 mph 83% 0.00 in
15:43 69.5 °F 63.8 °F 30.08 in NNW 2.0 mph 3.0 mph 82% 0.00 in
15:48 69.4 °F 63.3 °F 30.08 in East 2.0 mph 4.0 mph 81% 0.00 in
HorshamWeather.Com
Compliments of Weather Underground